Time,TemperatureF,DewpointF,PressureIn,WindDirection,WindDirectionDegrees,WindSpeedMPH,WindSpeedGustMPH,Humidity,HourlyPrecipIn,Conditions,Clouds,dailyrainin,SoftwareType,DateUTC
2013-02-11 00:00:00,15.3,7.9,29.83,NW,315,0.2,0.2,72,0.00,,SKC,0.00,VWS V14.01,2013-02-11 07:00:00,
2013-02-11 00:05:00,15.1,7.7,29.83,WNW,292,0.4,1.8,72,0.00,,SKC,0.00,VWS V14.01,2013-02-11 07:05:00,
2013-02-11 00:11:00,14.9,7.8,29.83,NW,315,3.4,3.4,73,0.00,,SKC,0.00,VWS V14.01,2013-02-11 07:11:00,
2013-02-11 00:16:00,15.1,8.0,29.83,WNW,292,2.2,3.4,73,0.00,,SKC,0.00,VWS V14.01,2013-02-11 07:16:00,
2013-02-11 00:21:00,15.1,7.7,29.83,NNW,338,0.2,3.4,72,0.00,,SKC,0.00,VWS V14.01,2013-02-11 07:21:00,
2013-02-11 00:26:00,14.8,7.4,29.83,WNW,292,1.1,3.4,72,0.00,,SKC,0.00,VWS V14.01,2013-02-11 07:26:00,
2013-02-11 00:31:00,14.8,7.7,29.83,WNW,292,0.0,1.1,73,0.00,,SKC,0.00,VWS V14.01,2013-02-11 07:31:00,
2013-02-11 00:36:00,14.9,7.5,29.83,WNW,292,0.4,1.1,72,0.00,,SKC,0.00,VWS V14.01,2013-02-11 07:36:00,
2013-02-11 00:41:00,14.8,7.4,29.83,NW,315,0.2,1.1,72,0.00,,SKC,0.00,VWS V14.01,2013-02-11 07:41:00,
2013-02-11 00:47:00,14.2,6.8,29.83,NW,315,0.7,1.6,72,0.00,,SKC,0.00,VWS V14.01,2013-02-11 07:47:00,
2013-02-11 00:52:00,14.4,7.6,29.83,NW,315,0.0,1.6,74,0.00,,SKC,0.00,VWS V14.01,2013-02-11 07:52:00,
2013-02-11 00:57:00,14.6,7.5,29.84,WNW,292,0.0,1.6,73,0.00,,SKC,0.00,VWS V14.01,2013-02-11 07:57:00,
2013-02-11 01:02:00,14.8,7.4,29.84,NW,315,2.0,2.0,72,0.00,,SKC,0.00,VWS V14.01,2013-02-11 08:02:00,
2013-02-11 01:07:00,14.8,7.7,29.83,NNW,338,0.2,5.6,73,0.00,,SKC,0.00,VWS V14.01,2013-02-11 08:07:00,
2013-02-11 01:12:00,14.8,7.7,29.83,North,0,0.2,5.6,73,0.00,,SKC,0.00,VWS V14.01,2013-02-11 08:12:00,
2013-02-11 01:17:00,14.6,7.5,29.84,NNW,338,0.0,5.6,73,0.00,,SKC,0.00,VWS V14.01,2013-02-11 08:17:00,
2013-02-11 01:22:00,14.2,7.4,29.84,NNW,338,0.4,5.6,74,0.00,,SKC,0.00,VWS V14.01,2013-02-11 08:22:00,
2013-02-11 01:28:00,14.0,7.2,29.84,NW,315,0.0,5.6,74,0.00,,SKC,0.00,VWS V14.01,2013-02-11 08:28:00,
2013-02-11 01:33:00,13.9,7.2,29.84,North,0,0.0,0.0,74,0.00,,SKC,0.00,VWS V14.01,2013-02-11 08:33:00,
2013-02-11 01:38:00,13.5,6.8,29.83,NNW,338,0.2,0.4,74,0.00,,SKC,0.00,VWS V14.01,2013-02-11 08:38:00,
2013-02-11 01:43:00,13.1,6.4,29.84,NW,315,0.0,1.1,74,0.00,,SKC,0.00,VWS V14.01,2013-02-11 08:43:00,
2013-02-11 01:48:00,13.0,6.6,29.84,NW,315,0.2,1.1,75,0.00,,SKC,0.00,VWS V14.01,2013-02-11 08:48:00,
2013-02-11 01:53:00,13.0,6.6,29.84,NW,315,0.0,1.1,75,0.00,,SKC,0.00,VWS V14.01,2013-02-11 08:53:00,
2013-02-11 01:58:00,13.1,6.7,29.84,NW,315,0.0,1.8,75,0.00,,SKC,0.00,VWS V14.01,2013-02-11 08:58:00,
2013-02-11 02:04:00,13.3,6.6,29.84,WNW,292,0.0,0.4,74,0.00,,SKC,0.00,VWS V14.01,2013-02-11 09:04:00,
2013-02-11 02:09:00,12.8,6.1,29.84,NNW,338,2.0,2.0,74,0.00,,SKC,0.00,VWS V14.01,2013-02-11 09:09:00,
2013-02-11 02:14:00,12.8,6.1,29.84,NNW,338,0.0,2.0,74,0.00,,SKC,0.00,VWS V14.01,2013-02-11 09:14:00,
2013-02-11 02:19:00,12.6,5.9,29.84,ENE,68,0.4,2.0,74,0.00,,SKC,0.00,VWS V14.01,2013-02-11 09:19:00,
2013-02-11 02:24:00,12.4,5.4,29.84,NW,315,0.0,2.0,73,0.00,,SKC,0.00,VWS V14.01,2013-02-11 09:24:00,
2013-02-11 02:29:00,12.1,5.1,29.84,NW,315,0.2,2.0,73,0.00,,SKC,0.00,VWS V14.01,2013-02-11 09:29:00,
2013-02-11 02:34:00,12.2,5.8,29.84,NW,315,0.0,2.2,75,0.00,,SKC,0.00,VWS V14.01,2013-02-11 09:34:00,
2013-02-11 02:40:00,12.2,5.5,29.84,ENE,68,0.0,2.2,74,0.00,,SKC,0.00,VWS V14.01,2013-02-11 09:40:00,
2013-02-11 02:45:00,11.9,4.9,29.84,NNW,338,0.0,2.2,73,0.00,,SKC,0.00,VWS V14.01,2013-02-11 09:45:00,
2013-02-11 02:50:00,11.3,4.6,29.84,NNW,338,0.0,2.2,74,0.00,,SKC,0.00,VWS V14.01,2013-02-11 09:50:00,
2013-02-11 02:55:00,11.2,4.8,29.84,ENE,68,0.2,2.2,75,0.00,,SKC,0.00,VWS V14.01,2013-02-11 09:55:00,
2013-02-11 03:00:00,11.0,5.2,29.84,NE,45,0.2,0.2,77,0.00,,SKC,0.00,VWS V14.01,2013-02-11 10:00:00,
2013-02-11 03:05:00,11.5,5.4,29.84,North,0,0.2,0.7,76,0.00,,SKC,0.00,VWS V14.01,2013-02-11 10:05:00,
2013-02-11 03:10:00,11.2,4.8,29.84,ENE,68,0.9,0.9,75,0.00,,SKC,0.00,VWS V14.01,2013-02-11 10:10:00,
2013-02-11 03:16:00,11.0,4.6,29.84,North,0,0.0,0.9,75,0.00,,SKC,0.00,VWS V14.01,2013-02-11 10:16:00,
2013-02-11 03:21:00,10.8,4.7,29.84,North,0,0.2,0.9,76,0.00,,SKC,0.00,VWS V14.01,2013-02-11 10:21:00,
2013-02-11 03:26:00,10.4,4.3,29.84,NNW,338,0.4,0.9,76,0.00,,SKC,0.00,VWS V14.01,2013-02-11 10:26:00,
2013-02-11 03:31:00,10.3,4.2,29.83,NW,315,0.2,0.7,76,0.00,,SKC,0.00,VWS V14.01,2013-02-11 10:31:00,
2013-02-11 03:36:00,10.1,4.3,29.84,NNW,338,0.0,0.9,77,0.00,,SKC,0.00,VWS V14.01,2013-02-11 10:36:00,
2013-02-11 03:41:00,9.7,4.0,29.83,NW,315,0.2,1.8,77,0.00,,SKC,0.00,VWS V14.01,2013-02-11 10:41:00,
2013-02-11 03:46:00,9.7,4.0,29.83,NNW,338,0.4,1.8,77,0.00,,SKC,0.00,VWS V14.01,2013-02-11 10:46:00,
2013-02-11 03:51:00,9.7,4.0,29.84,NNW,338,1.1,1.8,77,0.00,,SKC,0.00,VWS V14.01,2013-02-11 10:51:00,
2013-02-11 03:57:00,9.5,4.0,29.83,NNW,338,0.0,2.0,78,0.00,,SKC,0.00,VWS V14.01,2013-02-11 10:57:00,
2013-02-11 04:02:00,9.0,3.5,29.83,North,0,1.3,1.3,78,0.00,,SKC,0.00,VWS V14.01,2013-02-11 11:02:00,
2013-02-11 04:07:00,9.0,3.5,29.84,North,0,0.0,1.3,78,0.00,,SKC,0.00,VWS V14.01,2013-02-11 11:07:00,
2013-02-11 04:12:00,8.8,3.6,29.84,North,0,0.0,1.3,79,0.00,,SKC,0.00,VWS V14.01,2013-02-11 11:12:00,
2013-02-11 04:17:00,8.6,3.4,29.84,North,0,0.0,1.3,79,0.00,,SKC,0.00,VWS V14.01,2013-02-11 11:17:00,
2013-02-11 04:22:00,8.6,3.4,29.84,NNW,338,0.7,1.8,79,0.00,,SKC,0.00,VWS V14.01,2013-02-11 11:22:00,
2013-02-11 04:27:00,8.6,3.4,29.84,NNW,338,0.4,1.8,79,0.00,,SKC,0.00,VWS V14.01,2013-02-11 11:27:00,
2013-02-11 04:32:00,9.0,3.8,29.84,NNW,338,0.2,0.4,79,0.00,,SKC,0.00,VWS V14.01,2013-02-11 11:32:00,
2013-02-11 04:38:00,9.0,3.8,29.84,NNW,338,0.0,0.4,79,0.00,,SKC,0.00,VWS V14.01,2013-02-11 11:38:00,
2013-02-11 04:43:00,8.5,3.3,29.84,North,0,0.0,1.3,79,0.00,,SKC,0.00,VWS V14.01,2013-02-11 11:43:00,
2013-02-11 04:48:00,8.3,3.4,29.84,NNW,338,0.4,1.8,80,0.00,,SKC,0.00,VWS V14.01,2013-02-11 11:48:00,
2013-02-11 04:53:00,8.3,3.4,29.84,NNW,338,0.2,1.8,80,0.00,,SKC,0.00,VWS V14.01,2013-02-11 11:53:00,
2013-02-11 04:58:00,8.3,3.4,29.85,NNW,338,0.9,1.8,80,0.00,,SKC,0.00,VWS V14.01,2013-02-11 11:58:00,
2013-02-11 05:03:00,8.5,3.6,29.85,NNW,338,0.0,0.2,80,0.00,,SKC,0.00,VWS V14.01,2013-02-11 12:03:00,
2013-02-11 05:08:00,8.5,3.6,29.85,NW,315,0.4,0.9,80,0.00,,SKC,0.00,VWS V14.01,2013-02-11 12:08:00,
2013-02-11 05:13:00,8.5,3.6,29.85,NNW,338,0.0,1.3,80,0.00,,SKC,0.00,VWS V14.01,2013-02-11 12:13:00,
2013-02-11 05:19:00,8.3,3.4,29.85,NNW,338,1.8,1.8,80,0.00,,SKC,0.00,VWS V14.01,2013-02-11 12:19:00,
2013-02-11 05:24:00,8.3,3.4,29.85,NNW,338,0.0,1.8,80,0.00,,SKC,0.00,VWS V14.01,2013-02-11 12:24:00,
2013-02-11 05:29:00,7.9,3.0,29.85,NNW,338,0.4,1.8,80,0.00,,SKC,0.00,VWS V14.01,2013-02-11 12:29:00,
2013-02-11 05:34:00,7.9,3.0,29.85,NW,315,0.4,1.3,80,0.00,,SKC,0.00,VWS V14.01,2013-02-11 12:34:00,
2013-02-11 05:39:00,7.9,3.0,29.85,NNW,338,0.7,1.3,80,0.00,,SKC,0.00,VWS V14.01,2013-02-11 12:39:00,
2013-02-11 05:44:00,7.9,3.3,29.85,NNW,338,1.6,1.6,81,0.00,,SKC,0.00,VWS V14.01,2013-02-11 12:44:00,
2013-02-11 05:49:00,8.1,3.5,29.85,NNW,338,1.8,1.8,81,0.00,,SKC,0.00,VWS V14.01,2013-02-11 12:49:00,
2013-02-11 05:54:00,8.1,3.5,29.85,NNW,338,1.6,1.8,81,0.00,,SKC,0.00,VWS V14.01,2013-02-11 12:54:00,
2013-02-11 05:59:00,8.3,3.7,29.86,NNW,338,0.4,1.8,81,0.00,,SKC,0.00,VWS V14.01,2013-02-11 12:59:00,
2013-02-11 06:05:00,8.3,3.7,29.85,NNW,338,2.0,2.0,81,0.00,,SKC,0.00,VWS V14.01,2013-02-11 13:05:00,
2013-02-11 06:10:00,8.3,3.7,29.85,NNW,338,1.1,2.0,81,0.00,,SKC,0.00,VWS V14.01,2013-02-11 13:10:00,
2013-02-11 06:15:00,8.3,3.7,29.86,NW,315,0.2,2.0,81,0.00,,SKC,0.00,VWS V14.01,2013-02-11 13:15:00,
2013-02-11 06:20:00,8.1,3.5,29.86,NW,315,0.4,2.2,81,0.00,,SKC,0.00,VWS V14.01,2013-02-11 13:20:00,
2013-02-11 06:25:00,8.1,3.5,29.86,NW,315,0.4,2.2,81,0.00,,SKC,0.00,VWS V14.01,2013-02-11 13:25:00,
2013-02-11 06:30:00,7.9,3.3,29.86,NNW,338,0.7,0.7,81,0.00,,SKC,0.00,VWS V14.01,2013-02-11 13:30:00,
2013-02-11 06:35:00,7.9,3.3,29.86,NW,315,0.9,1.3,81,0.00,,SKC,0.00,VWS V14.01,2013-02-11 13:35:00,
2013-02-11 06:41:00,7.9,3.3,29.86,NNW,338,0.4,1.6,81,0.00,,SKC,0.00,VWS V14.01,2013-02-11 13:41:00,
2013-02-11 06:46:00,7.7,3.1,29.86,NNW,338,1.6,1.8,81,0.00,,SKC,0.00,VWS V14.01,2013-02-11 13:46:00,
2013-02-11 06:51:00,7.4,2.8,29.86,NNW,338,0.4,1.8,81,0.00,,SKC,0.00,VWS V14.01,2013-02-11 13:51:00,
2013-02-11 06:56:00,7.0,2.4,29.86,NNW,338,0.2,1.8,81,0.00,,SKC,0.00,VWS V14.01,2013-02-11 13:56:00,
2013-02-11 07:01:00,6.7,1.9,29.86,NNW,338,0.2,0.2,80,0.00,,SKC,0.00,VWS V14.01,2013-02-11 14:01:00,
2013-02-11 07:06:00,6.5,1.9,29.86,NNW,338,0.4,1.1,81,0.00,,SKC,0.00,VWS V14.01,2013-02-11 14:06:00,
2013-02-11 07:11:00,6.7,2.1,29.86,NW,315,0.0,1.1,81,0.00,,SKC,0.00,VWS V14.01,2013-02-11 14:11:00,
2013-02-11 07:16:00,6.7,2.1,29.87,NW,315,0.4,1.1,81,0.00,,SKC,0.00,VWS V14.01,2013-02-11 14:16:00,
2013-02-11 07:22:00,6.8,2.2,29.86,NW,315,0.0,1.1,81,0.00,,SKC,0.00,VWS V14.01,2013-02-11 14:22:00,
2013-02-11 07:27:00,7.2,2.9,29.86,NW,315,0.0,1.1,82,0.00,,SKC,0.00,VWS V14.01,2013-02-11 14:27:00,
2013-02-11 07:32:00,7.9,3.6,29.86,NW,315,0.0,0.2,82,0.00,,SKC,0.00,VWS V14.01,2013-02-11 14:32:00,
2013-02-11 07:37:00,8.8,4.4,29.86,NW,315,1.1,1.1,82,0.00,,SKC,0.00,VWS V14.01,2013-02-11 14:37:00,
2013-02-11 07:42:00,9.7,5.1,29.86,NW,315,0.0,1.1,81,0.00,,SKC,0.00,VWS V14.01,2013-02-11 14:42:00,
2013-02-11 07:47:00,10.6,6.2,29.86,NW,315,0.0,1.1,82,0.00,,SKC,0.00,VWS V14.01,2013-02-11 14:47:00,
2013-02-11 07:53:00,11.5,6.8,29.86,NW,315,0.2,1.1,81,0.00,,SKC,0.00,VWS V14.01,2013-02-11 14:53:00,
2013-02-11 07:58:00,11.9,6.4,29.86,NW,315,0.0,1.1,78,0.00,,SKC,0.00,VWS V14.01,2013-02-11 14:58:00,
2013-02-11 08:03:00,12.8,7.0,29.86,NW,315,0.0,0.0,77,0.00,,SKC,0.00,VWS V14.01,2013-02-11 15:03:00,
2013-02-11 08:08:00,14.4,8.2,29.86,NW,315,0.0,0.0,76,0.00,,SKC,0.00,VWS V14.01,2013-02-11 15:08:00,
2013-02-11 08:13:00,15.5,7.8,29.87,NW,315,0.0,0.2,71,0.00,,SKC,0.00,VWS V14.01,2013-02-11 15:13:00,
2013-02-11 08:18:00,16.2,8.5,29.86,NW,315,0.0,0.2,71,0.00,,SKC,0.00,VWS V14.01,2013-02-11 15:18:00,
2013-02-11 08:23:00,18.7,10.2,29.86,NW,315,0.0,0.2,69,0.00,,SKC,0.00,VWS V14.01,2013-02-11 15:23:00,
2013-02-11 08:29:00,20.5,11.6,29.87,NW,315,0.2,0.7,68,0.00,,SKC,0.00,VWS V14.01,2013-02-11 15:29:00,
2013-02-11 08:34:00,22.1,12.1,29.87,North,0,0.0,0.4,65,0.00,,SKC,0.00,VWS V14.01,2013-02-11 15:34:00,
2013-02-11 08:39:00,24.1,13.7,29.86,NNW,338,0.4,0.4,64,0.00,,SKC,0.00,VWS V14.01,2013-02-11 15:39:00,
2013-02-11 08:44:00,26.3,13.9,29.87,NNW,338,0.2,0.4,59,0.00,,SKC,0.00,VWS V14.01,2013-02-11 15:44:00,
2013-02-11 08:49:00,27.4,15.0,29.86,East,90,0.2,0.4,59,0.00,,SKC,0.00,VWS V14.01,2013-02-11 15:49:00,
2013-02-11 08:54:00,27.5,11.3,29.86,North,0,0.4,0.9,50,0.00,,SKC,0.00,VWS V14.01,2013-02-11 15:54:00,
2013-02-11 08:59:00,27.5,11.8,29.86,NNW,338,0.2,1.8,51,0.00,,SKC,0.00,VWS V14.01,2013-02-11 15:59:00,
2013-02-11 09:05:00,29.2,13.8,29.86,NW,315,0.2,0.9,52,0.00,,SKC,0.00,VWS V14.01,2013-02-11 16:05:00,
2013-02-11 09:10:00,33.1,12.5,29.86,WNW,292,1.1,1.6,42,0.00,,SKC,0.00,VWS V14.01,2013-02-11 16:10:00,
2013-02-11 09:15:00,32.9,13.4,29.86,NNW,338,1.3,1.8,44,0.00,,SKC,0.00,VWS V14.01,2013-02-11 16:15:00,
2013-02-11 09:20:00,34.2,15.1,29.86,NNE,22,0.7,1.8,45,0.00,,SKC,0.00,VWS V14.01,2013-02-11 16:20:00,
2013-02-11 09:25:00,37.1,17.7,29.86,East,90,1.1,1.8,45,0.00,,SKC,0.00,VWS V14.01,2013-02-11 16:25:00,
2013-02-11 09:30:00,39.8,17.5,29.86,NW,315,1.1,1.1,40,0.00,,SKC,0.00,VWS V14.01,2013-02-11 16:30:00,
2013-02-11 09:35:00,40.7,16.5,29.86,NNW,338,0.4,2.9,37,0.00,,SKC,0.00,VWS V14.01,2013-02-11 16:35:00,
2013-02-11 09:41:00,40.9,15.4,29.86,WNW,292,1.6,2.9,35,0.00,,SKC,0.00,VWS V14.01,2013-02-11 16:41:00,
2013-02-11 09:46:00,40.9,16.0,29.86,NE,45,0.4,2.9,36,0.00,,SKC,0.00,VWS V14.01,2013-02-11 16:46:00,
2013-02-11 09:51:00,41.4,14.5,29.86,WNW,292,0.7,2.9,33,0.00,,SKC,0.00,VWS V14.01,2013-02-11 16:51:00,
2013-02-11 09:56:00,41.8,14.1,29.86,North,0,0.2,2.9,32,0.00,,SKC,0.00,VWS V14.01,2013-02-11 16:56:00,
2013-02-11 10:01:00,41.0,15.5,29.86,NNW,338,0.4,0.4,35,0.00,,SKC,0.00,VWS V14.01,2013-02-11 17:01:00,
2013-02-11 10:06:00,40.9,13.3,29.86,NNW,338,0.4,0.4,32,0.00,,SKC,0.00,VWS V14.01,2013-02-11 17:06:00,
2013-02-11 10:12:00,38.3,11.7,29.86,NNW,338,0.4,0.4,33,0.00,,SKC,0.00,VWS V14.01,2013-02-11 17:12:00,
2013-02-11 10:17:00,38.5,13.2,29.86,NNW,338,0.4,0.4,35,0.00,,SKC,0.00,VWS V14.01,2013-02-11 17:17:00,
2013-02-11 10:22:00,38.3,13.7,29.86,NNW,338,0.4,0.4,36,0.00,,SKC,0.00,VWS V14.01,2013-02-11 17:22:00,
2013-02-11 10:27:00,37.8,12.6,29.86,NNW,338,0.4,0.4,35,0.00,,SKC,0.00,VWS V14.01,2013-02-11 17:27:00,
2013-02-11 10:32:00,36.9,11.8,29.86,NNW,338,0.4,0.4,35,0.00,,SKC,0.00,VWS V14.01,2013-02-11 17:32:00,
2013-02-11 10:37:00,36.5,12.1,29.86,NNW,338,0.4,0.4,36,0.00,,SKC,0.00,VWS V14.01,2013-02-11 17:37:00,
2013-02-11 10:42:00,36.2,11.8,29.86,NNW,338,0.4,0.4,36,0.00,,SKC,0.00,VWS V14.01,2013-02-11 17:42:00,
2013-02-11 10:48:00,37.3,12.2,29.86,NNW,338,0.4,0.4,35,0.00,,SKC,0.00,VWS V14.01,2013-02-11 17:48:00,
2013-02-11 10:53:00,38.9,13.6,29.86,NNW,338,0.4,0.4,35,0.00,,SKC,0.00,VWS V14.01,2013-02-11 17:53:00,
2013-02-11 10:58:00,36.7,11.6,29.86,NNW,338,0.4,0.4,35,0.00,,SKC,0.00,VWS V14.01,2013-02-11 17:58:00,
2013-02-11 11:03:00,36.0,12.9,29.86,NNW,338,0.4,0.4,38,0.00,,SKC,0.00,VWS V14.01,2013-02-11 18:03:00,
2013-02-11 11:08:00,39.4,14.7,29.86,NNW,338,0.4,0.4,36,0.00,,SKC,0.00,VWS V14.01,2013-02-11 18:08:00,
2013-02-11 11:13:00,40.3,14.8,29.85,NNW,338,0.4,0.4,35,0.00,,SKC,0.00,VWS V14.01,2013-02-11 18:13:00,
2013-02-11 11:18:00,41.0,14.8,29.85,NNW,338,0.4,0.4,34,0.00,,SKC,0.00,VWS V14.01,2013-02-11 18:18:00,
2013-02-11 11:24:00,40.9,13.3,29.85,NNW,338,0.4,0.4,32,0.00,,SKC,0.00,VWS V14.01,2013-02-11 18:24:00,
2013-02-11 11:29:00,38.5,11.9,29.85,NNW,338,0.4,0.4,33,0.00,,SKC,0.00,VWS V14.01,2013-02-11 18:29:00,
2013-02-11 11:34:00,36.4,12.0,29.85,NNW,338,0.4,0.4,36,0.00,,SKC,0.00,VWS V14.01,2013-02-11 18:34:00,
2013-02-11 11:39:00,33.7,12.0,29.84,NNW,338,0.4,0.4,40,0.00,,SKC,0.00,VWS V14.01,2013-02-11 18:39:00,
2013-02-11 11:44:00,29.9,11.6,29.84,NNW,338,0.4,0.4,46,0.00,,SKC,0.00,VWS V14.01,2013-02-11 18:44:00,
2013-02-11 11:49:00,29.3,11.6,29.84,NNW,338,0.4,0.4,47,0.00,,SKC,0.00,VWS V14.01,2013-02-11 18:49:00,
2013-02-11 11:54:00,29.3,11.6,29.84,NNW,338,0.4,0.4,47,0.00,,SKC,0.00,VWS V14.01,2013-02-11 18:54:00,
2013-02-11 12:00:00,30.2,12.9,29.84,NNW,338,0.4,0.4,48,0.00,,SKC,0.00,VWS V14.01,2013-02-11 19:00:00,
2013-02-11 12:05:00,30.8,13.0,29.83,NNW,338,0.4,0.4,47,0.00,,SKC,0.00,VWS V14.01,2013-02-11 19:05:00,
2013-02-11 12:10:00,31.0,13.1,29.83,NE,45,2.0,4.0,47,0.00,,SKC,0.00,VWS V14.01,2013-02-11 19:10:00,
2013-02-11 12:15:00,31.3,12.9,29.83,NE,45,5.4,6.7,46,0.00,,SKC,0.00,VWS V14.01,2013-02-11 19:15:00,
2013-02-11 12:20:00,31.1,13.7,29.83,ENE,68,1.6,6.7,48,0.00,,SKC,0.00,VWS V14.01,2013-02-11 19:20:00,
2013-02-11 12:25:00,31.3,13.9,29.83,NNE,22,5.1,6.7,48,0.00,,SKC,0.00,VWS V14.01,2013-02-11 19:25:00,
2013-02-11 12:30:00,30.8,13.4,29.83,NE,45,6.0,6.0,48,0.00,,SKC,0.00,VWS V14.01,2013-02-11 19:30:00,
2013-02-11 12:35:00,30.1,13.3,29.83,ENE,68,0.4,6.9,49,0.00,,SKC,0.00,VWS V14.01,2013-02-11 19:35:00,
2013-02-11 12:41:00,30.2,13.8,29.83,NE,45,2.2,6.9,50,0.00,,SKC,0.00,VWS V14.01,2013-02-11 19:41:00,
2013-02-11 12:46:00,31.0,14.6,29.83,ENE,68,1.1,6.9,50,0.00,,SKC,0.00,VWS V14.01,2013-02-11 19:46:00,
2013-02-11 12:51:00,31.1,13.7,29.82,East,90,2.9,7.2,48,0.00,,SKC,0.00,VWS V14.01,2013-02-11 19:51:00,
2013-02-11 12:56:00,30.1,13.3,29.82,NNE,22,3.8,8.9,49,0.00,,SKC,0.00,VWS V14.01,2013-02-11 19:56:00,
2013-02-11 13:01:00,30.6,14.6,29.82,ENE,68,4.5,6.0,51,0.00,,SKC,0.00,VWS V14.01,2013-02-11 20:01:00,
2013-02-11 13:06:00,30.4,14.0,29.82,East,90,0.9,6.0,50,0.00,,SKC,0.00,VWS V14.01,2013-02-11 20:06:00,
2013-02-11 13:12:00,30.4,14.9,29.82,NE,45,4.0,6.0,52,0.00,,SKC,0.00,VWS V14.01,2013-02-11 20:12:00,
2013-02-11 13:17:00,31.1,15.5,29.82,NE,45,3.8,6.0,52,0.00,,SKC,0.00,VWS V14.01,2013-02-11 20:17:00,
2013-02-11 13:22:00,31.9,15.8,29.82,East,90,2.7,6.0,51,0.00,,SKC,0.00,VWS V14.01,2013-02-11 20:22:00,
2013-02-11 13:27:00,32.0,15.5,29.82,North,0,2.5,6.0,50,0.00,,SKC,0.00,VWS V14.01,2013-02-11 20:27:00,
2013-02-11 13:32:00,32.0,15.9,29.81,NE,45,1.1,2.9,51,0.00,,SKC,0.00,VWS V14.01,2013-02-11 20:32:00,
2013-02-11 13:37:00,32.0,15.5,29.81,East,90,2.5,6.0,50,0.00,,SKC,0.00,VWS V14.01,2013-02-11 20:37:00,
2013-02-11 13:42:00,31.9,16.3,29.81,ENE,68,1.8,6.0,52,0.00,,SKC,0.00,VWS V14.01,2013-02-11 20:42:00,
2013-02-11 13:48:00,31.7,15.7,29.81,NE,45,2.5,6.0,51,0.00,,SKC,0.00,VWS V14.01,2013-02-11 20:48:00,
2013-02-11 13:53:00,31.7,16.1,29.81,NE,45,3.8,6.0,52,0.00,,SKC,0.00,VWS V14.01,2013-02-11 20:53:00,
2013-02-11 13:58:00,31.3,15.7,29.80,ENE,68,4.7,7.4,52,0.00,,SKC,0.00,VWS V14.01,2013-02-11 20:58:00,
2013-02-11 14:03:00,31.1,16.0,29.80,ENE,68,2.0,2.5,53,0.00,,SKC,0.00,VWS V14.01,2013-02-11 21:03:00,
2013-02-11 14:08:00,31.3,16.2,29.80,NE,45,1.8,3.6,53,0.00,,SKC,0.00,VWS V14.01,2013-02-11 21:08:00,
2013-02-11 14:13:00,31.3,16.6,29.80,ENE,68,4.0,4.9,54,0.00,,SKC,0.00,VWS V14.01,2013-02-11 21:13:00,
2013-02-11 14:18:00,30.2,15.1,29.80,East,90,0.9,5.6,53,0.00,,SKC,0.00,VWS V14.01,2013-02-11 21:18:00,
2013-02-11 14:23:00,30.4,16.2,29.80,ENE,68,6.3,6.3,55,0.00,,SKC,0.00,VWS V14.01,2013-02-11 21:23:00,
2013-02-11 14:29:00,30.4,16.2,29.80,NE,45,2.5,7.2,55,0.00,,SKC,0.00,VWS V14.01,2013-02-11 21:29:00,
2013-02-11 14:34:00,30.6,16.4,29.80,ENE,68,2.2,4.0,55,0.00,,SKC,0.00,VWS V14.01,2013-02-11 21:34:00,
2013-02-11 14:39:00,30.6,16.4,29.80,NNE,22,4.7,5.1,55,0.00,,SKC,0.00,VWS V14.01,2013-02-11 21:39:00,
2013-02-11 14:44:00,30.4,16.6,29.80,NE,45,3.1,5.1,56,0.00,,SKC,0.00,VWS V14.01,2013-02-11 21:44:00,
2013-02-11 14:49:00,30.4,16.6,29.80,NE,45,5.4,5.4,56,0.00,,SKC,0.00,VWS V14.01,2013-02-11 21:49:00,
2013-02-11 14:54:00,30.4,16.6,29.80,NNE,22,4.0,5.4,56,0.00,,SKC,0.00,VWS V14.01,2013-02-11 21:54:00,
2013-02-11 15:00:00,30.2,16.4,29.80,ENE,68,1.1,5.4,56,0.00,,SKC,0.00,VWS V14.01,2013-02-11 22:00:00,
2013-02-11 15:05:00,30.4,16.6,29.81,NE,45,0.9,3.6,56,0.00,,SKC,0.00,VWS V14.01,2013-02-11 22:05:00,
2013-02-11 15:10:00,30.2,16.0,29.81,NNE,22,1.8,4.5,55,0.00,,SKC,0.00,VWS V14.01,2013-02-11 22:10:00,
2013-02-11 15:15:00,30.1,15.9,29.81,ENE,68,3.4,4.7,55,0.00,,SKC,0.00,VWS V14.01,2013-02-11 22:15:00,
2013-02-11 15:20:00,29.7,15.5,29.81,East,90,2.2,5.1,55,0.00,,SKC,0.00,VWS V14.01,2013-02-11 22:20:00,
2013-02-11 15:25:00,29.3,15.6,29.81,NE,45,1.3,5.1,56,0.00,,SKC,0.00,VWS V14.01,2013-02-11 22:25:00,
2013-02-11 15:30:00,29.2,15.5,29.81,NE,45,1.8,1.8,56,0.00,,SKC,0.00,VWS V14.01,2013-02-11 22:30:00,
2013-02-11 15:36:00,29.0,15.7,29.81,North,0,0.4,2.9,57,0.00,,SKC,0.00,VWS V14.01,2013-02-11 22:36:00,
2013-02-11 15:41:00,29.0,15.7,29.81,NE,45,1.8,2.9,57,0.00,,SKC,0.00,VWS V14.01,2013-02-11 22:41:00,
2013-02-11 15:46:00,28.8,15.5,29.81,East,90,1.1,2.9,57,0.00,,SKC,0.00,VWS V14.01,2013-02-11 22:46:00,
2013-02-11 15:51:00,28.8,15.5,29.81,East,90,2.2,2.9,57,0.00,,SKC,0.00,VWS V14.01,2013-02-11 22:51:00,
2013-02-11 15:56:00,28.1,15.2,29.81,East,90,0.2,3.4,58,0.00,,SKC,0.00,VWS V14.01,2013-02-11 22:56:00,
2013-02-11 16:01:00,27.9,15.1,29.81,East,90,0.0,1.3,58,0.00,,SKC,0.00,VWS V14.01,2013-02-11 23:01:00,
2013-02-11 16:06:00,27.9,15.4,29.81,East,90,0.7,1.6,59,0.00,,SKC,0.00,VWS V14.01,2013-02-11 23:06:00,
2013-02-11 16:12:00,27.7,15.3,29.81,ENE,68,0.2,2.5,59,0.00,,SKC,0.00,VWS V14.01,2013-02-11 23:12:00,
2013-02-11 16:17:00,27.7,15.3,29.81,ENE,68,0.0,2.5,59,0.00,,SKC,0.00,VWS V14.01,2013-02-11 23:17:00,
2013-02-11 16:22:00,27.2,14.8,29.80,East,90,0.4,2.5,59,0.00,,SKC,0.00,VWS V14.01,2013-02-11 23:22:00,
2013-02-11 16:27:00,27.0,15.0,29.80,East,90,0.4,2.5,60,0.00,,SKC,0.00,VWS V14.01,2013-02-11 23:27:00,
2013-02-11 16:32:00,26.6,14.6,29.80,NNE,22,0.0,0.4,60,0.00,,SKC,0.00,VWS V14.01,2013-02-11 23:32:00,
2013-02-11 16:37:00,26.6,14.6,29.80,NNE,22,0.0,0.4,60,0.00,,SKC,0.00,VWS V14.01,2013-02-11 23:37:00,
2013-02-11 16:42:00,26.1,13.8,29.81,North,0,0.0,0.4,59,0.00,,SKC,0.00,VWS V14.01,2013-02-11 23:42:00,
2013-02-11 16:48:00,25.0,13.5,29.81,NNW,338,0.2,0.4,61,0.00,,SKC,0.00,VWS V14.01,2013-02-11 23:48:00,
2013-02-11 16:53:00,23.9,13.5,29.80,WNW,292,0.0,0.4,64,0.00,,SKC,0.00,VWS V14.01,2013-02-11 23:53:00,
2013-02-11 16:58:00,23.4,14.1,29.80,WNW,292,0.0,0.4,67,0.00,,SKC,0.00,VWS V14.01,2013-02-11 23:58:00,
2013-02-11 17:03:00,23.0,13.7,29.80,WNW,292,0.0,0.4,67,0.00,,SKC,0.00,VWS V14.01,2013-02-12 00:03:00,
2013-02-11 17:08:00,22.5,13.6,29.80,NNW,338,0.4,0.4,68,0.00,,SKC,0.00,VWS V14.01,2013-02-12 00:08:00,
2013-02-11 17:13:00,22.3,13.4,29.80,NW,315,0.7,1.1,68,0.00,,SKC,0.00,VWS V14.01,2013-02-12 00:13:00,
2013-02-11 17:18:00,22.1,13.2,29.80,NW,315,0.0,1.1,68,0.00,,SKC,0.00,VWS V14.01,2013-02-12 00:18:00,
2013-02-11 17:24:00,21.6,12.4,29.80,NW,315,0.2,1.1,67,0.00,,SKC,0.00,VWS V14.01,2013-02-12 00:24:00,
2013-02-11 17:29:00,21.1,12.2,29.80,NW,315,0.0,1.1,68,0.00,,SKC,0.00,VWS V14.01,2013-02-12 00:29:00,
2013-02-11 17:34:00,20.5,12.3,29.80,NW,315,0.0,0.0,70,0.00,,SKC,0.00,VWS V14.01,2013-02-12 00:34:00,
2013-02-11 17:39:00,20.3,11.8,29.80,NNW,338,0.9,0.9,69,0.00,,SKC,0.00,VWS V14.01,2013-02-12 00:39:00,
2013-02-11 17:44:00,20.2,11.7,29.81,NNW,338,0.2,0.9,69,0.00,,SKC,0.00,VWS V14.01,2013-02-12 00:44:00,
2013-02-11 17:49:00,20.0,11.8,29.81,NW,315,0.7,1.1,70,0.00,,SKC,0.00,VWS V14.01,2013-02-12 00:49:00,
2013-02-11 17:54:00,19.8,11.6,29.81,NW,315,0.4,1.1,70,0.00,,SKC,0.00,VWS V14.01,2013-02-12 00:54:00,
2013-02-11 17:59:00,19.3,11.1,29.81,NNW,338,0.0,1.1,70,0.00,,SKC,0.00,VWS V14.01,2013-02-12 00:59:00,
2013-02-11 18:04:00,18.9,10.8,29.81,NW,315,0.2,0.4,70,0.00,,SKC,0.00,VWS V14.01,2013-02-12 01:04:00,
2013-02-11 18:09:00,18.2,10.4,29.80,NNW,338,0.7,0.7,71,0.00,,SKC,0.00,VWS V14.01,2013-02-12 01:09:00,
2013-02-11 18:14:00,17.6,9.8,29.80,NW,315,0.4,1.1,71,0.00,,SKC,0.00,VWS V14.01,2013-02-12 01:14:00,
2013-02-11 18:19:00,17.6,9.8,29.80,NW,315,0.4,1.1,71,0.00,,SKC,0.00,VWS V14.01,2013-02-12 01:19:00,
2013-02-11 18:25:00,17.5,9.7,29.80,NNW,338,1.1,1.1,71,0.00,,SKC,0.00,VWS V14.01,2013-02-12 01:25:00,
2013-02-11 18:30:00,17.1,9.3,29.80,NNW,338,0.4,1.8,71,0.00,,SKC,0.00,VWS V14.01,2013-02-12 01:30:00,
2013-02-11 18:35:00,16.7,8.9,29.80,NW,315,0.2,1.1,71,0.00,,SKC,0.00,VWS V14.01,2013-02-12 01:35:00,
2013-02-11 18:40:00,16.2,8.8,29.80,NNW,338,1.8,1.8,72,0.00,,SKC,0.00,VWS V14.01,2013-02-12 01:40:00,
2013-02-11 18:45:00,15.8,8.1,29.80,NW,315,0.2,1.8,71,0.00,,SKC,0.00,VWS V14.01,2013-02-12 01:45:00,
2013-02-11 18:50:00,15.3,7.9,29.80,NNW,338,0.0,1.8,72,0.00,,SKC,0.00,VWS V14.01,2013-02-12 01:50:00,
2013-02-11 18:55:00,14.6,7.2,29.80,NW,315,0.0,1.8,72,0.00,,SKC,0.00,VWS V14.01,2013-02-12 01:55:00,
2013-02-11 19:01:00,14.6,7.5,29.80,NW,315,0.0,0.4,73,0.00,,SKC,0.00,VWS V14.01,2013-02-12 02:01:00,
2013-02-11 19:06:00,14.2,7.2,29.80,NNW,338,0.4,0.4,73,0.00,,SKC,0.00,VWS V14.01,2013-02-12 02:06:00,
2013-02-11 19:11:00,14.0,7.0,29.80,NNW,338,0.4,2.5,73,0.00,,SKC,0.00,VWS V14.01,2013-02-12 02:11:00,
2013-02-11 19:16:00,14.2,7.2,29.80,NNW,338,0.2,2.5,73,0.00,,SKC,0.00,VWS V14.01,2013-02-12 02:16:00,
2013-02-11 19:21:00,14.2,6.8,29.80,NNW,338,0.7,2.5,72,0.00,,SKC,0.00,VWS V14.01,2013-02-12 02:21:00,
2013-02-11 19:26:00,13.9,6.6,29.80,NW,315,0.7,2.5,72,0.00,,SKC,0.00,VWS V14.01,2013-02-12 02:26:00,
2013-02-11 19:31:00,13.7,6.4,29.80,WNW,292,1.3,1.3,72,0.00,,SKC,0.00,VWS V14.01,2013-02-12 02:31:00,
2013-02-11 19:37:00,13.5,6.2,29.80,NNW,338,0.0,1.3,72,0.00,,SKC,0.00,VWS V14.01,2013-02-12 02:37:00,
2013-02-11 19:42:00,13.1,5.5,29.80,NE,45,0.9,1.3,71,0.00,,SKC,0.00,VWS V14.01,2013-02-12 02:42:00,
2013-02-11 19:47:00,12.8,5.2,29.80,NW,315,0.4,1.3,71,0.00,,SKC,0.00,VWS V14.01,2013-02-12 02:47:00,
2013-02-11 19:52:00,12.6,5.3,29.80,NNW,338,1.3,1.3,72,0.00,,SKC,0.00,VWS V14.01,2013-02-12 02:52:00,
2013-02-11 19:57:00,12.8,5.5,29.80,NW,315,0.4,1.3,72,0.00,,SKC,0.00,VWS V14.01,2013-02-12 02:57:00,
2013-02-11 20:02:00,13.0,5.7,29.80,NW,315,0.4,0.9,72,0.00,,SKC,0.00,VWS V14.01,2013-02-12 03:02:00,
2013-02-11 20:07:00,13.1,5.5,29.80,NNW,338,2.2,2.2,71,0.00,,SKC,0.00,VWS V14.01,2013-02-12 03:07:00,
2013-02-11 20:13:00,14.0,6.3,29.79,NW,315,1.8,2.5,71,0.00,,SKC,0.00,VWS V14.01,2013-02-12 03:13:00,
2013-02-11 20:18:00,15.5,6.8,29.80,NW,315,1.1,2.5,68,0.00,,SKC,0.00,VWS V14.01,2013-02-12 03:18:00,
2013-02-11 20:23:00,16.4,6.4,29.79,NW,315,0.9,2.5,64,0.00,,SKC,0.00,VWS V14.01,2013-02-12 03:23:00,
2013-02-11 20:28:00,16.9,5.8,29.80,NW,315,2.5,2.5,61,0.00,,SKC,0.00,VWS V14.01,2013-02-12 03:28:00,
2013-02-11 20:33:00,16.9,6.2,29.80,NNW,338,2.2,2.2,62,0.00,,SKC,0.00,VWS V14.01,2013-02-12 03:33:00,
2013-02-11 20:38:00,16.7,6.0,29.80,NNW,338,1.3,2.5,62,0.00,,SKC,0.00,VWS V14.01,2013-02-12 03:38:00,
2013-02-11 20:43:00,16.7,6.3,29.80,NNW,338,1.3,3.4,63,0.00,,SKC,0.00,VWS V14.01,2013-02-12 03:43:00,
2013-02-11 20:48:00,16.9,6.5,29.80,NNW,338,3.1,3.4,63,0.00,,SKC,0.00,VWS V14.01,2013-02-12 03:48:00,
2013-02-11 20:54:00,16.6,6.2,29.80,NW,315,2.9,3.4,63,0.00,,SKC,0.00,VWS V14.01,2013-02-12 03:54:00,
2013-02-11 20:59:00,16.7,6.7,29.80,NW,315,0.4,3.4,64,0.00,,SKC,0.00,VWS V14.01,2013-02-12 03:59:00,
2013-02-11 21:04:00,16.6,6.6,29.80,NW,315,2.0,2.9,64,0.00,,SKC,0.00,VWS V14.01,2013-02-12 04:04:00,
2013-02-11 21:09:00,16.7,6.7,29.80,NW,315,1.8,2.9,64,0.00,,SKC,0.00,VWS V14.01,2013-02-12 04:09:00,
2013-02-11 21:14:00,16.9,6.5,29.80,WNW,292,2.7,2.9,63,0.00,,SKC,0.00,VWS V14.01,2013-02-12 04:14:00,
2013-02-11 21:19:00,17.1,6.3,29.80,NW,315,1.8,3.8,62,0.00,,SKC,0.00,VWS V14.01,2013-02-12 04:19:00,
2013-02-11 21:24:00,17.1,6.3,29.80,NNW,338,3.6,3.8,62,0.00,,SKC,0.00,VWS V14.01,2013-02-12 04:24:00,
2013-02-11 21:29:00,17.1,6.0,29.80,NNW,338,2.7,3.8,61,0.00,,SKC,0.00,VWS V14.01,2013-02-12 04:29:00,
2013-02-11 21:35:00,17.1,6.7,29.80,NW,315,2.5,3.4,63,0.00,,SKC,0.00,VWS V14.01,2013-02-12 04:35:00,
2013-02-11 21:40:00,16.9,6.5,29.80,NW,315,1.8,3.6,63,0.00,,SKC,0.00,VWS V14.01,2013-02-12 04:40:00,
2013-02-11 21:45:00,16.7,6.3,29.79,NW,315,0.9,3.6,63,0.00,,SKC,0.00,VWS V14.01,2013-02-12 04:45:00,
2013-02-11 21:50:00,16.9,6.2,29.79,WNW,292,2.0,3.8,62,0.00,,SKC,0.00,VWS V14.01,2013-02-12 04:50:00,
2013-02-11 21:55:00,16.7,6.0,29.79,NNW,338,2.9,3.8,62,0.00,,SKC,0.00,VWS V14.01,2013-02-12 04:55:00,
2013-02-11 22:00:00,16.7,6.0,29.79,NNW,338,1.8,1.8,62,0.00,,SKC,0.00,VWS V14.01,2013-02-12 05:00:00,
2013-02-11 22:01:00,16.7,6.0,29.79,NNW,338,1.6,1.8,62,0.00,,SKC,0.00,VWS V14.01,2013-02-12 05:01:00,
2013-02-11 22:06:00,17.1,6.3,29.79,NW,315,3.4,3.4,62,0.00,,SKC,0.00,VWS V14.01,2013-02-12 05:06:00,
2013-02-11 22:11:00,17.6,6.4,29.79,NW,315,2.5,3.4,61,0.00,,SKC,0.00,VWS V14.01,2013-02-12 05:11:00,
2013-02-11 22:17:00,17.6,6.4,29.79,NNW,338,2.5,3.6,61,0.00,,SKC,0.00,VWS V14.01,2013-02-12 05:17:00,
2013-02-11 22:22:00,17.8,6.6,29.79,NNW,338,3.6,3.6,61,0.00,,SKC,0.00,VWS V14.01,2013-02-12 05:22:00,
2013-02-11 22:27:00,18.2,7.0,29.78,WNW,292,1.8,3.6,61,0.00,,SKC,0.00,VWS V14.01,2013-02-12 05:27:00,
2013-02-11 22:32:00,18.2,7.4,29.79,NW,315,3.4,3.4,62,0.00,,SKC,0.00,VWS V14.01,2013-02-12 05:32:00,
2013-02-11 22:37:00,18.4,7.6,29.78,NW,315,1.8,3.8,62,0.00,,SKC,0.00,VWS V14.01,2013-02-12 05:37:00,
2013-02-11 22:42:00,18.5,7.7,29.78,NNW,338,4.0,4.0,62,0.00,,SKC,0.00,VWS V14.01,2013-02-12 05:42:00,
2013-02-11 22:47:00,19.1,7.9,29.79,NW,315,3.4,4.0,61,0.00,,SKC,0.00,VWS V14.01,2013-02-12 05:47:00,
2013-02-11 22:52:00,19.3,7.3,29.78,NW,315,2.5,4.0,59,0.00,,SKC,0.00,VWS V14.01,2013-02-12 05:52:00,
2013-02-11 22:58:00,19.4,7.4,29.79,WNW,292,0.4,4.0,59,0.00,,SKC,0.00,VWS V14.01,2013-02-12 05:58:00,
2013-02-11 23:03:00,19.6,7.6,29.79,NW,315,0.4,0.4,59,0.00,,SKC,0.00,VWS V14.01,2013-02-12 06:03:00,
2013-02-11 23:08:00,19.4,7.4,29.79,NNW,338,0.0,1.1,59,0.00,,SKC,0.00,VWS V14.01,2013-02-12 06:08:00,
2013-02-11 23:13:00,19.4,7.4,29.79,NNW,338,0.4,1.1,59,0.00,,SKC,0.00,VWS V14.01,2013-02-12 06:13:00,
2013-02-11 23:18:00,19.3,7.3,29.79,NNW,338,0.2,1.1,59,0.00,,SKC,0.00,VWS V14.01,2013-02-12 06:18:00,
2013-02-11 23:23:00,19.1,7.9,29.79,NW,315,0.0,1.1,61,0.00,,SKC,0.00,VWS V14.01,2013-02-12 06:23:00,
2013-02-11 23:28:00,18.7,7.5,29.79,NNW,338,0.0,1.1,61,0.00,,SKC,0.00,VWS V14.01,2013-02-12 06:28:00,
2013-02-11 23:34:00,18.4,7.2,29.79,NW,315,0.4,1.6,61,0.00,,SKC,0.00,VWS V14.01,2013-02-12 06:34:00,
2013-02-11 23:39:00,18.4,7.2,29.79,NW,315,2.7,2.7,61,0.00,,SKC,0.00,VWS V14.01,2013-02-12 06:39:00,
2013-02-11 23:44:00,18.4,7.2,29.79,NW,315,1.8,2.7,61,0.00,,SKC,0.00,VWS V14.01,2013-02-12 06:44:00,
2013-02-11 23:49:00,18.4,7.2,29.79,NW,315,2.7,3.4,61,0.00,,SKC,0.00,VWS V14.01,2013-02-12 06:49:00,
2013-02-11 23:54:00,18.4,7.2,29.79,NW,315,1.8,3.4,61,0.00,,SKC,0.00,VWS V14.01,2013-02-12 06:54:00,
2013-02-11 23:59:00,18.4,7.2,29.79,NNW,338,1.1,3.4,61,0.00,,SKC,0.00,VWS V14.01,2013-02-12 06:59:00,